AirNav   Air Wisconsin Up To $57,000 Bonus
 
 1747 users online  

5J5 Holly Hill Airport
Holly Hill, South Carolina, USA

GOING TO HOLLY HILL?


FAA INFORMATION EFFECTIVE 08 SEPTEMBER 2022

Location

FAA Identifier: 5J5
Lat/Long: 33-18-05.4900N 080-23-35.0900W
33-18.091500N 080-23.584833W
33.3015250,-80.3930806
(estimated)
Elevation: 96 ft. / 29 m (estimated)
Variation: 05W (1985)
From city: 2 miles SE of HOLLY HILL, SC
Time zone: UTC -4 (UTC -5 during Standard Time)
Zip code: 29059

Airport Operations

Airport use: Open to the public
Control tower: no
ARTCC: JACKSONVILLE CENTER
FSS: ANDERSON FLIGHT SERVICE STATION
NOTAMs facility: AND (NOTAM-D service available)
Attendance: UNATNDD
Wind indicator: yes
Segmented circle: no

Airport Communications

CTAF: 122.9
WX AWOS-3 at DYB (15 nm S): 119.575 (843-821-8403)
WX AWOS-3 at MKS (19 nm E): 119.175 (843-761-1486)
WX AWOS-3 at MNI (19 nm NE): 120.175 (803-478-6060)

Nearby radio navigation aids

VOR radial/distance  VOR name  Freq  Var
VANr171/10.8VANCE VORTAC110.4006W
CHSr329/30.3CHARLESTON VORTAC113.5005W

 
NDB name  Hdg/Dist  Freq  Var  ID
DORCHESTER COUNTY345/15.536507WDYB -.. -.-- -...
MANNING215/19.638106WMNI -- -. ..

Airport Services

Parking: tiedowns
Airframe service: NONE
Powerplant service: NONE
Bottled oxygen: NONE
Bulk oxygen: NONE

Runway Information

Runway 4/22

Dimensions: 3900 x 75 ft. / 1189 x 23 m
Surface: turf, in good condition
RUNWAY 4  RUNWAY 22
Latitude: 33-17.856667N33-18.326333N
Longitude: 080-23.846667W080-23.323000W
Elevation: 94.0 ft.95.0 ft.
Traffic pattern: leftleft
Runway heading: 048 magnetic, 043 true228 magnetic, 223 true
Obstructions: 81 ft. tree, 481 ft. from runway, 112 ft. left of centerline, 5:1 slope to clear98 ft. tree, 1233 ft. from runway, 132 ft. left of centerline, 12:1 slope to clear

Airport Ownership and Management from official FAA records

Ownership: Publicly-owned
Owner: TOWN OF HOLLY HILL
PO BOX 1108
HOLLY HILL, SC 29059
Phone 803-496-3330
Manager: DAVID BARBER
140 AIRPORT RD
HOLLY HILL, SC 29059
Phone 843-514-4757

Airport Operational Statistics

Aircraft based on the field: 16
Single engine airplanes: 15
Ultralights: 1
    
Aircraft operations: avg 63/week *
76% local general aviation
24% transient general aviation
* for 12-month period ending 30 June 2022

Additional Remarks

FOR CD CTC CHARLESTON APCH AT 843-414-2832.

Instrument Procedures

There are no published instrument procedures at 5J5.

Some nearby airports with instrument procedures:

6J2 - St George Airport (9 nm SW)
KDYB - Summerville Airport (15 nm S)
KMKS - Berkeley County Airport (19 nm E)
KMNI - Santee Cooper Regional Airport (19 nm NE)
KOGB - Orangeburg Municipal Airport (25 nm W)
 
Loc | Ops | Rwys | IFR | FBO | Links
Com | Nav | Svcs | Stats | Notes
Area around 5J5 (Holly Hill Airport)
 
Road maps at: MapQuest Bing Google
 
Aerial photo
WARNING: Photo may not be current or correct
Aerial photo of 5J5 (Holly Hill Airport)
Do you have a better or more recent aerial photo of Holly Hill Airport that you would like to share? If so, please send us your photo.

 
Sectional chart

 
Airport distance calculator
Flying to Holly Hill Airport? Find the distance to fly.

From to 5J5

Sunrise and sunset
Times for 04-Oct-2022
 Local
(UTC-4)
 Zulu
(UTC)
Morning civil twilight06:5410:54
Sunrise07:1911:19
Sunset19:0223:02
Evening civil twilight19:2623:26

Current date and time
Zulu (UTC)  04-Oct-2022 19:25:20
Local (UTC-4)  04-Oct-2022 15:25:20
 
METAR
KDYB 
15nm S 
041855Z AUTO VRB04G16KT 10SM CLR 21/08 A3002 RMK AO2
KMKS 
19nm E 
041855Z AUTO 36004KT 10SM CLR 20/07 A3003 RMK AO2
KMNI 
19nm NE 
041855Z AUTO 30005KT 10SM CLR 21/05 A3002 RMK AO2
KOGB 
25nm NW 
041853Z AUTO 30006KT 10SM CLR 22/06 A3003 RMK AO2 SLP168 T02220061
KRBW 
26nm SW 
041855Z AUTO 31006KT 10SM CLR 22/07 A3004 RMK AO2
KCHS 
30nm SE 
041856Z 33009KT 10SM CLR 21/08 A3002 RMK AO2 SLP163 T02110078
TAF
KOGB 
25nm NW 
041721Z 0418/0518 34008KT P6SM FEW050 FM050000 00000KT P6SM SKC FM051600 33005KT P6SM SKC
KCHS 
30nm SE 
041737Z 0418/0518 36010G16KT P6SM SKC FM041930 34008KT P6SM SKC FM050100 00000KT P6SM SKC FM051530 33006KT P6SM SKC
NOTAMs
Click for the latest NOTAMs
NOTAMs are issued by the DoD/FAA and will open in a separate window not controlled by AirNav.

 

 
 

Would you like to see your business listed on this page?

 If your business provides an interesting product or service to pilots, flight crews, aircraft, or users of the Holly Hill Airport, you should consider listing it here.  To start the listing process, click on the button below
 
Add a business
 

Other Pages about Holly Hill Airport

Update a link
 
Copyright © AirNav, LLC. All rights reserved. Privacy Policy  Contact